Starlink 35552

operational
NORAD ID: 66057 Int'l Des: 2025-235 Owner: SPXS Country: US Constellation: starlink
NOTLE

Über Starlink 35552

Beschreibung wird geladen...

Live-Position

3D-Globus wird geladen...

Nächste Überflüge

Höhenverlauf

Altitude vs Time

uPlot chart will show altitude changes over time

Zweizeiliger Elementsatz

1 66057U 25234E 25293.17857359 .00009887 00000-0 45195-3 0 9995
2 66057 97.5180 358.8704 0019153 274.5220 85.3827 15.20597807 166
Epoch: 20. Okt. 2025 • Age: 15 hours

Aktueller Status

Höhe 509.7 km
Geschwindigkeit 7.61 km/s
Subsatellitenpunkt 12.26°N, 136.92°W
Startdatum 19. Okt. 2025
Alter 1 days
Typ internet

Technische Details

Klassifizierung Payload
Masse 575.00 kg
Trockenmasse 530.00 kg
Gesamtmasse 575.00 kg
Länge 0.30 m
Durchmesser 4.10 m
Spannweite 29.00 m
Form Box + pan
Hersteller SPXS
Bus-Typ Starlink V2MO
Phasenstatus In Orbit
Besitzer/Staat SPXS/US

Große Konstellationen

Loading constellations...